Rochelle, IL

5:32 AM CST on November 22, 2017 (GMT -0600)
Rochelle

Weather History for KRPJ - January, 2013

Change the Weather History Date:

Thursday, January 10, 2013

  Actual Average (KRFD) Record (KRFD)
Temperature  
Mean Temperature 31 °F -  
Max Temperature 43 °F 24 °F 55 °F (1975)
Min Temperature 19 °F 7 °F -27 °F (1982)
Degree Days  
Heating Degree Days 34    
Moisture  
Dew Point 28 °F    
Average Humidity 83    
Maximum Humidity 99    
Minimum Humidity 51    
Precipitation  
Precipitation 0.57 in - - ()
Sea Level Pressure  
Sea Level Pressure 30.22 in    
Wind  
Wind Speed 8 mph (ESE)    
Max Wind Speed 17 mph    
Max Gust Speed 24 mph    
Visibility 8 miles    
Events Rain , Snow    
Averages and records for this station are not official NWS values.
T = Trace of Precipitation, MM = Missing Value Source: NWS Daily Summary

Daily Weather History Graph

Daily Weather History Graph

Search for Another Location

Airport or City:

Trip Planner

Search our weather history database for the weather conditions in past years. The results will help you decide how hot, cold, wet, or windy it might be!

Date:

Astronomy

Jan. 10, 2013 Rise Set
Actual Time 7:23 AM CST 4:45 PM CST
Civil Twilight 6:52 AM CST 5:16 PM CST
Nautical Twilight 6:17 AM CST 5:50 PM CST
Astronomical Twilight 5:43 AM CST 6:24 PM CST
Moon 6:02 AM CST (1/10) 3:52 PM CST (1/10)
Length of Visible Light 10h 23m
Length of Day
9h 21m
Waning Crescent, 2% of the Moon is Illuminated
Jan 10
Waning Crescent
Jan 11
New
Jan 18
First Quarter
Jan 26
Full
Feb 3
Last Quarter

Hourly Weather History & Observations

Time (CST) Temp. Windchill Dew Point Humidity Pressure Visibility Wind Dir Wind Speed Gust Speed Precip Events Conditions
12:15 AM 19.9 °F 14.9 °F 18.3 °F 93% 30.48 in 10.0 mi SSW 3.5 mph - N/A   Clear
12:55 AM 21.6 °F 16.8 °F 20.3 °F 95% 30.48 in 10.0 mi South 3.5 mph - N/A   Clear
2:15 AM 19.8 °F 13.2 °F 18.5 °F 95% 30.49 in 10.0 mi SE 4.6 mph - N/A   Clear
2:35 AM 20.3 °F 15.4 °F 18.7 °F 93% 30.48 in 10.0 mi ESE 3.5 mph - N/A   Clear
2:55 AM 21.2 °F 16.4 °F 19.4 °F 93% 30.47 in 10.0 mi East 3.5 mph - N/A   Clear
3:15 AM 23.0 °F - 20.8 °F 91% 30.47 in 10.0 mi Calm Calm - N/A   Clear
3:35 AM 21.9 °F 17.2 °F 19.6 °F 91% 30.47 in 10.0 mi NE 3.5 mph - N/A   Clear
3:55 AM 21.7 °F 14.3 °F 19.8 °F 92% 30.46 in 10.0 mi NE 5.8 mph - N/A   Clear
4:15 AM 23.0 °F 17.0 °F 20.8 °F 91% 30.45 in 10.0 mi NE 4.6 mph - N/A   Clear
4:35 AM 22.5 °F 15.1 °F 20.7 °F 93% 30.45 in 10.0 mi East 5.8 mph - N/A   Clear
4:55 AM 23.2 °F 16.0 °F 20.5 °F 89% 30.45 in 10.0 mi ESE 5.8 mph - N/A   Clear
5:15 AM 22.5 °F - 20.7 °F 93% 30.45 in 10.0 mi Calm Calm - N/A   Clear
5:35 AM 23.7 °F 17.8 °F 21.7 °F 92% 30.44 in 10.0 mi East 4.6 mph - N/A   Clear
5:55 AM 23.5 °F 15.4 °F 21.0 °F 90% 30.44 in 10.0 mi East 6.9 mph - N/A   Clear
6:15 AM 23.9 °F 16.8 °F 21.2 °F 89% 30.44 in 10.0 mi ENE 5.8 mph - N/A   Clear
6:55 AM 25.0 °F 19.3 °F 21.7 °F 87% 30.44 in 10.0 mi East 4.6 mph - N/A   Clear
7:15 AM 26.8 °F 20.2 °F 22.1 °F 83% 30.44 in 10.0 mi East 5.8 mph - N/A   Clear
7:35 AM 25.5 °F 17.8 °F 21.9 °F 86% 30.44 in 10.0 mi ESE 6.9 mph - N/A   Clear
7:55 AM 25.7 °F 18.0 °F 22.5 °F 88% 30.43 in 10.0 mi ESE 6.9 mph - N/A   Clear
8:15 AM 27.1 °F 19.7 °F 24.1 °F 88% 30.42 in 10.0 mi East 6.9 mph - N/A   Clear
8:35 AM 30.6 °F 24.7 °F 25.7 °F 82% 30.41 in 10.0 mi ESE 5.8 mph - N/A   Clear
9:15 AM 33.6 °F 26.2 °F 28.0 °F 80% 30.39 in 10.0 mi ESE 9.2 mph - N/A   Clear
9:55 AM 34.7 °F 25.9 °F 27.5 °F 75% 30.38 in 10.0 mi ESE 12.7 mph - N/A   Clear
10:35 AM 36.9 °F 30.1 °F 27.1 °F 68% 30.35 in 10.0 mi ESE 9.2 mph - N/A   Clear
10:55 AM 37.4 °F 28.5 °F 26.4 °F 65% 30.33 in 10.0 mi ESE 15.0 mph 18.4 mph N/A   Clear
11:15 AM 38.8 °F 30.8 °F 26.4 °F 61% 30.31 in 10.0 mi ESE 13.8 mph - N/A   Clear
11:35 AM 40.8 °F 32.6 °F 26.6 °F 57% 30.29 in 10.0 mi ESE 16.1 mph - N/A   Clear
11:55 AM 40.8 °F 33.3 °F 26.4 °F 57% 30.28 in 10.0 mi ESE 13.8 mph - N/A   Clear
12:15 PM 41.9 °F 35.4 °F 26.2 °F 54% 30.26 in 10.0 mi ESE 11.5 mph - N/A   Clear
12:35 PM 43.2 °F 36.2 °F 25.9 °F 51% 30.24 in 10.0 mi SE 13.8 mph 18.4 mph N/A   Clear
12:55 PM 41.9 °F 34.6 °F 25.9 °F 53% 30.22 in 10.0 mi ESE 13.8 mph - N/A   Clear
1:15 PM 41.9 °F 34.0 °F 26.4 °F 54% 30.21 in 10.0 mi ESE 16.1 mph - N/A   Clear
1:35 PM 41.9 °F 35.0 °F 27.0 °F 55% 30.19 in 10.0 mi East 12.7 mph - N/A   Scattered Clouds
1:55 PM 42.3 °F 34.8 °F 27.7 °F 56% 30.17 in 10.0 mi East 15.0 mph 18.4 mph N/A   Mostly Cloudy
2:15 PM 42.4 °F 35.3 °F 28.4 °F 58% 30.17 in 10.0 mi ESE 13.8 mph - N/A Rain Light Rain
2:35 PM 40.5 °F 34.1 °F 31.6 °F 71% 30.16 in 10.0 mi ESE 10.4 mph - N/A Rain Light Rain
2:55 PM 39.9 °F 33.4 °F 31.1 °F 71% 30.15 in 10.0 mi East 10.4 mph - N/A Rain Light Rain
3:15 PM 39.9 °F 34.5 °F 30.9 °F 70% 30.15 in 10.0 mi East 8.1 mph - N/A   Overcast
3:35 PM 39.7 °F 32.7 °F 31.3 °F 72% 30.13 in 10.0 mi East 11.5 mph - N/A   Overcast
3:55 PM 40.3 °F 31.9 °F 29.3 °F 65% 30.13 in 10.0 mi ESE 16.1 mph - N/A   Overcast
4:15 PM 40.3 °F 32.2 °F 28.9 °F 64% 30.11 in 10.0 mi ESE 15.0 mph 21.9 mph N/A   Overcast
4:35 PM 38.8 °F 30.4 °F 31.5 °F 75% 30.10 in 7.0 mi ESE 15.0 mph - N/A Rain Rain
4:55 PM 36.9 °F 27.5 °F 33.6 °F 88% 30.09 in 3.0 mi ESE 16.1 mph 21.9 mph 0.01 in Rain Light Rain
5:15 PM 36.5 °F 26.7 °F 34.7 °F 93% 30.08 in 3.0 mi ESE 17.3 mph - 0.01 in Rain Light Rain
5:35 PM 36.1 °F 26.5 °F 34.7 °F 94% 30.07 in 3.0 mi ESE 16.1 mph - 0.03 in Rain Rain
5:55 PM 35.8 °F 26.5 °F 34.7 °F 96% 30.06 in 7.0 mi ESE 15.0 mph - 0.03 in   Overcast
6:15 PM 35.8 °F 26.5 °F 35.1 °F 97% 30.04 in 2.0 mi ESE 15.0 mph 24.2 mph 0.02 in Snow Light Snow
6:35 PM 35.8 °F 26.5 °F 35.1 °F 97% 30.04 in 4.0 mi ESE 15.0 mph 24.2 mph 0.02 in   Overcast
6:55 PM 35.8 °F 27.8 °F 35.1 °F 97% 30.03 in 7.0 mi ESE 11.5 mph - 0.02 in   Overcast
7:15 PM 36.0 °F 27.5 °F 35.1 °F 97% 30.02 in 5.0 mi SE 12.7 mph 18.4 mph N/A Rain Light Rain
7:35 PM 35.8 °F 26.5 °F 35.4 °F 99% 30.00 in 3.0 mi SE 15.0 mph - 0.01 in Rain Rain
7:55 PM 36.0 °F 26.0 °F 35.6 °F 99% 29.99 in 3.0 mi SE 17.3 mph - 0.04 in Rain Rain
8:15 PM 36.1 °F 28.2 °F 35.8 °F 99% 29.96 in 3.0 mi ESE 11.5 mph - 0.03 in Rain Rain
8:35 PM 36.5 °F 28.2 °F 36.0 °F 98% 29.95 in 4.0 mi ESE 12.7 mph 19.6 mph 0.04 in Rain Rain
8:55 PM 36.7 °F 27.6 °F 36.5 °F 99% 29.93 in 3.0 mi ESE 15.0 mph - 0.07 in Rain Light Rain
9:15 PM 37.0 °F 27.7 °F 36.7 °F 99% 29.94 in 1.5 mi SE 16.1 mph 21.9 mph 0.14 in   Overcast
9:35 PM 37.4 °F 28.9 °F 36.9 °F 98% 29.92 in 2.0 mi SE 13.8 mph - 0.29 in   Overcast
9:55 PM 37.4 °F 28.5 °F 37.0 °F 99% 29.91 in 4.0 mi SE 15.0 mph - 0.35 in Rain Rain
10:15 PM 37.6 °F 29.1 °F 37.4 °F 99% 29.89 in 7.0 mi ESE 13.8 mph - 0.02 in Rain Light Rain
10:35 PM 37.9 °F 28.9 °F 37.6 °F 99% 29.88 in 5.0 mi SE 16.1 mph - 0.02 in   Overcast
11:35 PM 39.6 °F 33.5 °F 39.2 °F 99% 29.85 in 4.0 mi SSE 9.2 mph - N/A   Overcast
11:55 PM 40.1 °F 32.4 °F 39.6 °F 98% 29.84 in 4.0 mi SE 13.8 mph - 0.03 in Rain Rain